Home > Weather > Kazan > Past weeks

Flag for Russia Past Weather in Kazan, Russia — Yesterday and Last 2 Weeks

Now
59 °F

Clear.


Feels Like: 59 °F
Forecast: 59 / 86 °F
Wind: 1 mph from North

Location: Kazan'

Current Time: May 26, 2016 at 3:39:30 AM

Latest Report: May 26, 2016 at 3:00 AM


Visibility: 10 mi

Pressure: 29.95 "Hg

Humidity: 72%

Dew Point: 50 °F

Location of KazanLocation

Past Weather in Kazan — Graph

°F

Kazan Temperature Yesterday

Maximum temperature yesterday: 84 °F (at 1:30 PM)
Minimum temperature yesterday: 57 °F (at 4:30 AM)
Average temperature yesterday: 73 °F

High & Low Weather Summary for the Past Weeks

 TemperatureHumidityPressure
High84 °F (May 25, 1:30 PM)100% (May 21, 7:00 PM)30.15 "Hg (May 21, 7:00 PM)
Low39 °F (May 11, 2:30 AM)23% (May 11, 4:00 PM)29.65 "Hg (May 12, 12:30 PM)
Average58 °F58%29.97 "Hg
* Reported May 11 2:00 AM — May 26 2:30 AM, Kazan, Weather by CustomWeather, © 2016

Note: Actual official high and low records may vary slightly from our data, if they occured in-between our weather recording intervals... More about our weather records

Advertising

Kazan Weather History for the Previous 24 Hours

Scroll right to see more
 ConditionsComfort  
Time TempWeatherWind HumidityBarometerVisibility
2:30 AM
Thu, May 26
61 °FClear.No wind63%29.95 "Hg10 mi
2:00 AM61 °FClear.1 mph63%29.95 "Hg10 mi
1:30 AM66 °FClear.8 mph52%29.95 "Hg10 mi
1:00 AM68 °FClear.10 mph49%29.95 "Hg10 mi
12:30 AM68 °FClear.10 mph49%29.95 "Hg10 mi
12:00 AM68 °FClear.10 mph49%29.95 "Hg10 mi
11:30 PM
Wed, May 25
70 °FClear.10 mph46%29.95 "Hg10 mi
11:00 PM70 °FClear.10 mph43%29.95 "Hg10 mi
10:30 PM70 °FClear.10 mph46%29.95 "Hg10 mi
10:00 PM70 °FClear.10 mph46%29.95 "Hg10 mi
9:30 PM70 °FClear.10 mph46%29.95 "Hg10 mi
9:00 PM72 °FClear.10 mph44%29.95 "Hg10 mi
8:30 PM73 °FClear.8 mph41%29.95 "Hg10 mi
8:00 PM73 °FSunny.8 mph41%29.95 "Hg10 mi
7:30 PM73 °FSunny.8 mph41%29.95 "Hg10 mi
7:00 PM77 °FSunny.6 mph39%29.95 "Hg10 mi
6:30 PM79 °FPassing clouds.8 mph34%29.95 "HgN/A
6:00 PM79 °FPassing clouds.3 mph37%29.95 "HgN/A
5:30 PM77 °FPassing clouds.3 mph39%29.95 "HgN/A
5:00 PM81 °FPassing clouds.3 mph32%29.95 "HgN/A
4:30 PM82 °FPassing clouds.6 mph28%29.95 "HgN/A
4:00 PM84 °FPassing clouds.8 mph25%29.95 "HgN/A
3:30 PM84 °FPassing clouds.8 mph23%29.95 "HgN/A
3:00 PM84 °FPassing clouds.8 mph25%29.95 "HgN/A
2:30 PM84 °FScattered clouds.8 mph23%29.95 "HgN/A
2:00 PM84 °FScattered clouds.10 mph25%29.95 "HgN/A
1:30 PM84 °FScattered clouds.8 mph25%29.98 "HgN/A
1:00 PM82 °FScattered clouds.6 mph26%29.98 "HgN/A
12:30 PM82 °FPassing clouds.6 mph25%29.98 "HgN/A
12:00 PM82 °FPassing clouds.6 mph32%29.98 "HgN/A
11:30 AM81 °FPassing clouds.8 mph32%29.98 "HgN/A
11:00 AM81 °FPassing clouds.8 mph32%29.98 "HgN/A
10:30 AM79 °FPassing clouds.8 mph34%29.98 "HgN/A
10:00 AM79 °FPassing clouds.8 mph37%29.98 "HgN/A
9:30 AM77 °FPassing clouds.8 mph44%29.98 "HgN/A
9:00 AM75 °FPassing clouds.8 mph44%29.98 "HgN/A
8:30 AM73 °FSunny.10 mph53%29.98 "Hg10 mi
8:00 AM72 °FPassing clouds.6 mph53%29.98 "HgN/A
7:30 AM70 °FSunny.6 mph57%29.98 "Hg10 mi
7:00 AM68 °FPassing clouds.6 mph56%30.01 "HgN/A
6:30 AM66 °FPassing clouds.6 mph60%30.01 "HgN/A
6:00 AM64 °FSunny.3 mph64%30.01 "Hg10 mi
5:30 AM64 °FSunny.1 mph64%30.01 "Hg10 mi
5:00 AM61 °FPassing clouds.3 mph68%30.01 "HgN/A
4:30 AM57 °FSunny.1 mph77%30.01 "Hg10 mi
4:00 AM61 °FSunny.6 mph68%29.98 "Hg10 mi
3:30 AM61 °FSunny.8 mph68%29.98 "Hg10 mi
3:00 AM61 °FClear.10 mph68%29.98 "Hg10 mi
Weather by CustomWeather, © 2016

See weather overviewHow to use our weather pages